Weather in Zhairem

Kazakhstan     48°19′59″N   70°09′39″E
temp.,
°C
wind,
m/s
gust,
m/s
humid.,
%
clouds,
%
prec.,
mm/h
press.,
hPa
HPBL,
m
24 january, sun
sun2400:00−21nne33971 0.0 103820
03:00−24nnw12970 0.0 104020
06:00−24wnw12975 0.0 104120
09:00−25nnw009946 0.0 104320
12:00−20ssw119123 0.0 104462
15:00−18sw118739 0.0 1043138
18:00−22nnw009446 0.0 104520
21:00−22e229083 0.0 104520
25 january, mon
mon2500:00−22se238873 0.0 104520
03:00−21se128553 0.0 104420
06:00−19se118077 0.0 104320
09:00−17sse2280100 0.0 104322
12:00−15ssw358174 0.0 1043194
15:00−14sw35820 0.0 1041252
18:00−17sw33853 0.0 104021
21:00−17sw338460 0.0 104138
26 january, tue
tue2600:00−17sw338363 0.0 104133
03:00−18sw338480 0.0 104126
06:00−17ssw229282 0.1 104024
09:00−18s119587 0.0 104120
12:00−14se119290 0.0 104146
15:00−11se119176 0.0 104082
18:00−15ne119640 0.0 104020
21:00−15e22950 0.0 104120
27 january, wed
wed2700:00−14e23930 0.0 104120
03:00−14ene22930 0.0 104020
06:00−14ene23930 0.0 104020
09:00−14ene23930 0.0 104020
12:00−10e23920 0.0 1040105
15:00−8ene23933 0.0 1039144
18:00−10ene33911 0.0 103921
21:00−11ene34910 0.0 104021
28 january, thu
thu2800:00−12e33910 0.0 103921
03:00−12e33910 0.0 103921
06:00−13ene33910 0.0 103921
09:00−13ene34893 0.0 104024
12:00−9e34881 0.0 103999
15:00−7ene228724 0.0 103862
18:00−9e238143 0.0 103821
21:00−10e33770 0.0 103821